Location: Laura�t
(43.9341°N, 0.2497°E)
Time: 23:16:59
(UTC+00:00)

Cosmos 1066 Rocket - Pass Details

Date: 03 March 2021
Orbit: 799 x 894 km, 81.2° (Epoch: 17 April)

Event Time Altitude Azimuth Distance (km) Brightness Sun altitude
Rises 19:36:09 0° 353° (N) 3,441 7.6 -19.8°
Reaches altitude 10° 19:38:39 10° 359° (N) 2,514 6.8 -20.2°
Maximum altitude 19:44:14 52° 75° (ENE) 1,078 4.4 -21.2°
Enters shadow 19:45:44 42° 121° (ESE) 1,243 4.6 -21.5°
